Flight Track Log - Related Links

Times and Time Zones

All times are in EDT time to prevent confusion due to time zone crossing. See the EJA929 flight status page for this flight to view local times or setup timezone preferences in your user account.

Time Position Orientation Groundspeed Altitude Reporting Facility
EDT Latitude Longitude Course Direction KTS MPH feet Rate Location/Type
11:54AM 42.6000 -70.9333 324° Northwest 173 199 1,400  Level KA90
11:55AM 42.6500 -70.9833 324° Northwest 207 238 3,000 2,400 Climbing KA90
11:56AM 42.6167 -71.0667 241° Southwest 235 270 6,200 3,706 Climbing KA90
11:58AM 42.5272 -71.2117 230° Southwest 294 338 13,500 2,737 Climbing Boston Center
11:59AM 42.4656 -71.2947 225° Southwest 333 383 14,000 545 Climbing Boston Center
12:00PM 42.3664 -71.3864 214° Southwest 387 445 14,600 992 Climbing Boston Center
12:01PM 42.2817 -71.4608 213° Southwest 408 470 16,000 1,513 Climbing Boston Center
12:02PM 42.1822 -71.5519 214° Southwest 408 470 17,600 1,412 Climbing Boston Center
12:03PM 42.1056 -71.6203 213° Southwest 408 470 18,800 1,377 Climbing Boston Center
12:04PM 42.0042 -71.7164 215° Southwest 413 475 20,400 1,537 Climbing Boston Center
12:05PM 41.9108 -71.8011 214° Southwest 418 481 21,900 814 Climbing Boston Center
12:06PM 41.8175 -71.8858 214° Southwest 418 481 22,000 50 Climbing Boston Center
12:07PM 41.7181 -71.9728 213° Southwest 424 488 22,000  Level Boston Center
12:08PM 41.6100 -72.0708 214° Southwest 424 488 22,000  Level Boston Center
12:09PM 41.5103 -72.1600 214° Southwest 429 494 22,000  Level Boston Center
12:10PM 41.4061 -72.2547 214° Southwest 442 509 22,000  Level Boston Center
12:11PM 41.3144 -72.3267 211° Southwest 442 509 22,000  Level Boston Center
12:12PM 41.1644 -72.4650 215° Southwest 443 510 22,000  Level Boston Center
12:13PM 41.0625 -72.5503 212° Southwest 443 510 22,000  Level Boston Center
12:14PM 40.9603 -72.6461 215° Southwest 443 510 22,000  Level Boston Center
12:15PM 40.8578 -72.7336 213° Southwest 448 516 22,000  Level Boston Center
12:16PM 40.7533 -72.8181 211° Southwest 442 509 22,000  Level Boston Center
12:17PM 40.6489 -72.9050 212° Southwest 442 509 22,000 -213 Level Boston Center
12:19PM 40.5236 -73.0181 214° Southwest 451 519 21,500 -2,383 Descending New York Center
12:20PM 40.4156 -73.1128 214° Southwest 439 505 16,400 -2,727 Descending New York Center
12:21PM 40.3267 -73.1858 212° Southwest 434 499 16,000 -893 Descending New York Center
12:22PM 40.2428 -73.3025 227° Southwest 412 474 14,600 -2,200 Descending New York Center
12:23PM 40.1825 -73.3900 228° Southwest 383 441 11,600 -2,067 Descending New York Center
12:24PM 40.1181 -73.4853 229° Southwest 340 391 10,500 -1,462 Descending New York Center
12:25PM 40.0544 -73.5261 206° Southwest 297 342 8,700 -1,240 Descending New York Center
12:26PM 39.9867 -73.5775 210° Southwest 290 334 8,000 -1,050 Descending New York Center
12:27PM 39.9903 -73.6753 273° West 242 278 6,600 -1,714 Descending New York Center
12:28PM 40.0022 -73.7814 278° West 249 287 4,600 -1,513 Descending New York Center
12:29PM 40.0061 -73.8711 273° West 268 308 3,600 -800 Descending New York Center
12:30PM 40.0369 -73.9647 293° West 269 310 3,000 -298 Descending New York Center
12:31PM 40.0639 -74.0500 292° West 259 298 3,000  Level New York Center
12:32PM 40.0906 -74.1381 292° West 259 298 3,000  Level New York Center
12:33PM 40.1133 -74.2125 292° West 254 292 3,000  Level New York Center
12:34PM 40.1403 -74.2953 293° West 249 287 3,000  Level New York Center
12:35PM 40.1706 -74.3917 292° West 259 298 3,000  Level New York Center
12:36PM 40.1950 -74.4772 291° West 254 292 3,000  Level New York Center
12:37PM 40.2089 -74.5678 281° West 254 292 3,000 -50 Level New York Center
12:38PM 40.1936 -74.6511 257° West 236 272 2,900  Descending New York Center
12:39PM 40.1767 -74.7236 253° West 224 258 3,000 50 Climbing New York Center
12:40PM 40.1639 -74.7933 257° West 213 245 3,000  Level New York Center
12:41PM 40.1467 -74.8658 253° West 208 239 3,000  Level New York Center
12:42PM 40.1381 -74.9331 261° West 198 228 3,000  Level New York Center
12:43PM 40.1317 -74.9981 263° West 193 222 3,000 -155 Level New York Center
12:44PM 40.1167 -75.0500 249° West 179 206 2,700 -574 Descending Philadelphia TRACON
12:45PM 40.0833 -75.0833 217° Southwest 171 197 1,900 -652 Descending Philadelphia TRACON
12:47PM 40.0453 -75.0225 129° Southeast 98 113 700 -581 Descending New York Center
12:49PM 40.0667 -75.0000 197° South  Level FlightAware Approximate

Login

Don't have an account? Register now (free) for customized features, flight alerts, and more!